| time (UTC) | temp C | wind direction | speed KPH | gust KPH | rain 1hr cm | rain 24hr cm | rain mn cm | humidity % | barometer mb |
| 20260901092715 | 21 | 112 | 0.0 | 0.0 | 0.00 | 2.39 | 2.39 | 94 | 1032.5 |
| 20260901091713 | 21 | 202 | 0.0 | 0.0 | 0.00 | 2.39 | 2.39 | 93 | 1032.3 |
| 20260901090714 | 21 | 90 | 0.0 | 0.0 | 0.03 | 2.39 | 2.39 | 93 | 1032.2 |
| 20260901085813 | 21 | 110 | 0.0 | 1.6 | 0.05 | 2.39 | 2.39 | 93 | 1032.3 |
| 20260901084817 | 21 | 180 | 0.0 | 0.0 | 0.08 | 2.39 | 2.39 | 93 | 1032.5 |
| 20260901083818 | 21 | 180 | 0.0 | 1.6 | 0.08 | 2.39 | 2.39 | 93 | 1032.7 |
| 20260901082913 | 21 | 337 | 0.0 | 0.0 | 0.13 | 2.39 | 2.39 | 93 | 1032.8 |
| 20260901081916 | 21 | 337 | 0.0 | 0.0 | 0.23 | 2.39 | 2.39 | 93 | 1032.7 |
| 20260901080914 | 21 | 67 | 0.0 | 0.0 | 0.28 | 2.36 | 2.36 | 93 | 1032.8 |
| 20260901075914 | 21 | 67 | 0.0 | 0.0 | 0.41 | 2.34 | 2.34 | 93 | 1032.9 |
| 20260901074915 | 21 | 180 | 0.0 | 0.0 | 0.56 | 2.31 | 2.31 | 93 | 1032.9 |
| 20260901073916 | 21 | 292 | 0.0 | 0.0 | 0.69 | 2.31 | 2.31 | 93 | 1033.0 |
| 20260901073014 | 21 | 337 | 0.0 | 0.0 | 0.76 | 2.29 | 2.26 | 93 | 1033.3 |
| 20260901072015 | 21 | 337 | 0.0 | 1.6 | 0.89 | 2.16 | 2.16 | 92 | 1033.0 |
| 20260901070113 | 21 | 337 | 0.0 | 0.0 | 0.97 | 1.93 | 1.93 | 91 | 1033.1 |
| 20260901065213 | 20 | 337 | 0.0 | 0.0 | 1.12 | 1.85 | 1.83 | 92 | 1033.1 |
| 20260901064216 | 20 | 337 | 0.0 | 0.0 | 1.17 | 1.68 | 1.68 | 91 | 1033.1 |
| 20260901063314 | 20 | 337 | 0.0 | 0.0 | 1.19 | 1.57 | 1.57 | 91 | 1033.0 |
| 20260901062413 | 20 | 292 | 0.0 | 0.0 | 1.14 | 1.37 | 1.35 | 90 | 1033.1 |
| 20260901061415 | 20 | 292 | 0.0 | 0.0 | 1.07 | 1.17 | 1.17 | 90 | 1033.3 |
| 20260901060416 | 20 | 292 | 0.0 | 0.0 | 1.02 | 1.04 | 1.02 | 89 | 1033.5 |
| 20260901055415 | 21 | 292 | 0.0 | 0.0 | 0.81 | 0.81 | 0.76 | 88 | 1033.6 |
| 20260901054514 | 21 | 292 | 0.0 | 0.0 | 0.56 | 0.56 | 0.53 | 89 | 1033.8 |
| 20260901053515 | 21 | 292 | 0.0 | 0.0 | 0.41 | 0.41 | 0.38 | 88 | 1033.9 |
| 20260901051614 | 21 | 292 | 0.0 | 0.0 | 0.13 | 0.13 | 0.10 | 87 | 1033.9 |
| 20260901050616 | 21 | 292 | 0.0 | 0.0 | 0.05 | 0.05 | 0.03 | 87 | 1033.9 |
| 20260901045714 | 21 | 292 | 0.0 | 0.0 | 0.00 | 0.00 | 0.00 | 87 | 1033.8 |
| 20260901044715 | 21 | 292 | 0.0 | 0.0 | 0.00 | 0.00 | 0.00 | 87 | 1033.7 |
| 20260901043713 | 21 | 292 | 0.0 | 0.0 | 0.00 | 0.00 | 0.00 | 87 | 1033.8 |
| 20260901042716 | 21 | 292 | 0.0 | 0.0 | 0.00 | 0.00 | 0.00 | 87 | 1033.8 |
| 20260901040714 | 21 | 292 | 0.0 | 0.0 | 0.00 | 0.00 | 0.00 | 86 | 1033.8 |
| 20260901035727 | 21 | 292 | 0.0 | 0.0 | 0.00 | 0.00 | 0.00 | 86 | 1034.0 |
| 20260901034729 | 21 | 292 | 0.0 | 0.0 | 0.00 | 0.00 | 0.00 | 86 | 1034.0 |
| 20260901033826 | 21 | 292 | 0.0 | 0.0 | 0.00 | 0.00 | 0.00 | 85 | 1034.2 |
| 20260901032826 | 21 | 292 | 0.0 | 0.0 | 0.00 | 0.00 | 0.00 | 85 | 1034.2 |
| 20260901031826 | 21 | 292 | 0.0 | 0.0 | 0.00 | 0.00 | 0.00 | 86 | 1034.2 |
| 20260901030826 | 21 | 292 | 0.0 | 0.0 | 0.00 | 0.00 | 0.00 | 85 | 1034.4 |
| 20260901025829 | 21 | 292 | 0.0 | 0.0 | 0.00 | 0.00 | 0.00 | 85 | 1034.2 |
| 20260901024926 | 21 | 292 | 0.0 | 0.0 | 0.00 | 0.00 | 0.00 | 84 | 1034.5 |
| 20260901023926 | 21 | 292 | 0.0 | 0.0 | 0.00 | 0.00 | 0.00 | 84 | 1034.5 |
| 20260901022928 | 21 | 292 | 0.0 | 0.0 | 0.00 | 0.00 | 0.00 | 84 | 1034.4 |
| 20260901021927 | 21 | 296 | 0.0 | 0.0 | 0.00 | 0.00 | 0.00 | 84 | 1034.5 |
| 20260901020926 | 21 | 112 | 0.0 | 0.0 | 0.00 | 0.00 | 0.00 | 83 | 1034.5 |
| 20260901020025 | 21 | 112 | 0.0 | 0.0 | 0.00 | 0.03 | 0.00 | 83 | 1034.5 |
| 20260901015027 | 21 | 112 | 0.0 | 0.0 | 0.00 | 0.05 | 0.00 | 83 | 1034.6 |
| 20260901013125 | 21 | 112 | 0.0 | 0.0 | 0.00 | 0.05 | 0.00 | 82 | 1034.7 |
| 20260901012127 | 21 | 112 | 0.0 | 0.0 | 0.00 | 0.05 | 0.00 | 82 | 1034.7 |
| 20260901011127 | 21 | 118 | 0.0 | 1.6 | 0.00 | 0.05 | 0.00 | 82 | 1034.5 |
| 20260901010225 | 21 | 247 | 0.0 | 0.0 | 0.00 | 0.05 | 0.00 | 81 | 1034.5 |
| 20260901005228 | 21 | 247 | 0.0 | 0.0 | 0.00 | 0.05 | 0.00 | 81 | 1034.7 |
| 20260901004228 | 21 | 247 | 0.0 | 0.0 | 0.00 | 0.05 | 0.00 | 81 | 1034.7 |
| 20260901003226 | 21 | 247 | 0.0 | 0.0 | 0.00 | 0.05 | 0.00 | 81 | 1034.5 |
| 20260901002225 | 21 | 247 | 0.0 | 0.0 | 0.00 | 0.05 | 0.00 | 81 | 1034.5 |
| 20260831234225 | 21 | 202 | 0.0 | 0.0 | 0.00 | 0.05 | 0.00 | 79 | 1034.6 |
| 20260831233325 | 22 | 202 | 0.0 | 0.0 | 0.00 | 0.05 | 0.00 | 79 | 1034.7 |
| 20260831232328 | 22 | 202 | 0.0 | 0.0 | 0.00 | 0.05 | 0.00 | 79 | 1034.9 |
| 20260831231329 | 22 | 202 | 0.0 | 0.0 | 0.00 | 0.05 | 0.00 | 78 | 1035.0 |
| 20260831230426 | 22 | 202 | 0.0 | 0.0 | 0.00 | 0.05 | 0.00 | 78 | 1035.0 |
| 20260831225427 | 22 | 202 | 0.0 | 1.6 | 0.00 | 0.05 | 0.00 | 77 | 1034.7 |
| 20260831224427 | 22 | 202 | 0.0 | 0.0 | 0.00 | 0.05 | 0.00 | 76 | 1034.9 |
| 20260831223525 | 22 | 202 | 0.0 | 0.0 | 0.00 | 0.05 | 0.00 | 76 | 1034.7 |
| 20260831222525 | 22 | 247 | 0.0 | 0.0 | 0.00 | 0.05 | 0.00 | 75 | 1034.8 |
| 20260831221527 | 22 | 337 | 0.0 | 1.6 | 0.00 | 0.05 | 0.00 | 75 | 1034.9 |
| 20260831220526 | 22 | 202 | 0.0 | 1.6 | 0.00 | 0.05 | 0.00 | 76 | 1034.9 |
| 20260831215527 | 22 | 180 | 0.0 | 1.6 | 0.00 | 0.05 | 0.00 | 76 | 1034.8 |
| 20260831214625 | 22 | 67 | 0.0 | 1.6 | 0.00 | 0.05 | 0.00 | 76 | 1034.7 |
| 20260831211725 | 22 | 123 | 0.0 | 1.6 | 0.00 | 0.05 | 0.00 | 74 | 1034.9 |
| 20260831205726 | 23 | 202 | 0.0 | 1.6 | 0.00 | 0.05 | 0.00 | 72 | 1035.0 |
| 20260831203726 | 23 | 247 | 0.0 | 0.0 | 0.00 | 0.05 | 0.00 | 72 | 1035.1 |
| 20260831202725 | 23 | 173 | 0.0 | 4.8 | 0.00 | 0.05 | 0.00 | 72 | 1035.0 |
| 20260831201726 | 24 | 315 | 0.0 | 0.0 | 0.00 | 0.05 | 0.00 | 71 | 1035.0 |
| 20260831200825 | 24 | 270 | 0.0 | 0.0 | 0.00 | 0.05 | 0.00 | 71 | 1035.1 |
| 20260831195826 | 25 | 337 | 0.0 | 0.0 | 0.00 | 0.05 | 0.00 | 70 | 1035.1 |
| 20260831194827 | 25 | 337 | 0.0 | 0.0 | 0.00 | 0.05 | 0.00 | 69 | 1035.2 |
| 20260831193829 | 25 | 337 | 0.0 | 0.0 | 0.00 | 0.05 | 0.00 | 69 | 1035.1 |
| 20260831191826 | 25 | 67 | 0.0 | 0.0 | 0.00 | 0.05 | 0.00 | 70 | 1035.1 |
| 20260831190826 | 25 | 67 | 0.0 | 0.0 | 0.00 | 0.05 | 0.00 | 70 | 1035.2 |
| 20260831185826 | 25 | 67 | 0.0 | 0.0 | 0.00 | 0.05 | 0.00 | 68 | 1035.3 |
| 20260831184826 | 25 | 67 | 0.0 | 1.6 | 0.00 | 0.05 | 0.00 | 68 | 1035.5 |
| 20260831182927 | 26 | 67 | 0.0 | 0.0 | 0.00 | 0.05 | 0.00 | 63 | 1035.8 |
| 20260831182025 | 27 | 67 | 0.0 | 1.6 | 0.00 | 0.05 | 0.00 | 63 | 1035.9 |
| 20260831181027 | 27 | 67 | 1.6 | 4.8 | 0.00 | 0.05 | 0.00 | 61 | 1035.8 |
| 20260831175126 | 27 | 67 | 0.0 | 0.0 | 0.00 | 0.05 | 0.00 | 61 | 1035.8 |
| 20260831173226 | 28 | 67 | 0.0 | 3.2 | 0.00 | 0.05 | 0.00 | 57 | 1035.6 |
| 20260831172226 | 28 | 67 | 0.0 | 0.0 | 0.00 | 0.05 | 0.00 | 60 | 1035.7 |
| 20260831170227 | 26 | 67 | 0.0 | 0.0 | 0.00 | 0.05 | 0.00 | 62 | 1036.0 |
| 20260831163228 | 25 | 67 | 0.0 | 0.0 | 0.00 | 0.05 | 0.00 | 63 | 1036.1 |
| 20260831162226 | 25 | 67 | 1.6 | 3.2 | 0.00 | 0.05 | 0.00 | 62 | 1036.2 |
| 20260831161324 | 25 | 67 | 0.0 | 0.0 | 0.00 | 0.05 | 0.00 | 61 | 1036.4 |
| 20260831155326 | 25 | 67 | 0.0 | 0.0 | 0.00 | 0.05 | 0.00 | 61 | 1036.1 |
| 20260831154425 | 25 | 67 | 0.0 | 0.0 | 0.00 | 0.05 | 0.00 | 62 | 1036.1 |
| 20260831153426 | 25 | 67 | 0.0 | 3.2 | 0.00 | 0.05 | 0.00 | 62 | 1036.1 |
| 20260831152426 | 25 | 67 | 0.0 | 1.6 | 0.00 | 0.05 | 0.00 | 60 | 1036.2 |
| 20260831151427 | 25 | 67 | 0.0 | 0.0 | 0.00 | 0.05 | 0.00 | 60 | 1036.3 |
| 20260831150526 | 25 | 67 | 0.0 | 0.0 | 0.00 | 0.05 | 0.00 | 60 | 1036.3 |
| 20260831145525 | 25 | 67 | 0.0 | 1.6 | 0.00 | 0.05 | 0.00 | 61 | 1036.3 |
| 20260831144525 | 25 | 67 | 1.6 | 4.8 | 0.00 | 0.05 | 0.00 | 63 | 1036.5 |
| 20260831143527 | 24 | 67 | 0.0 | 1.6 | 0.00 | 0.05 | 0.00 | 67 | 1036.5 |
| 20260831142625 | 23 | 67 | 1.6 | 8.0 | 0.00 | 0.05 | 0.00 | 69 | 1036.4 |
| 20260831141626 | 23 | 180 | 1.6 | 4.8 | 0.00 | 0.05 | 0.00 | 72 | 1036.3 |
| 20260831140628 | 23 | 67 | 1.6 | 3.2 | 0.00 | 0.05 | 0.00 | 73 | 1036.4 |
| 20260831135626 | 22 | 99 | 0.0 | 1.6 | 0.00 | 0.05 | 0.00 | 75 | 1036.3 |
| 20260831134626 | 22 | 72 | 3.2 | 6.4 | 0.00 | 0.05 | 0.00 | 77 | 1036.2 |
| 20260831133628 | 22 | 67 | 1.6 | 4.8 | 0.00 | 0.05 | 0.00 | 78 | 1036.2 |
| 20260831132725 | 21 | 337 | 0.0 | 4.8 | 0.00 | 0.05 | 0.00 | 80 | 1036.0 |
| 20260831131726 | 21 | 7 | 1.6 | 3.2 | 0.00 | 0.05 | 0.00 | 79 | 1036.1 |
| 20260831125726 | 21 | 337 | 0.0 | 0.0 | 0.00 | 0.05 | 0.00 | 81 | 1036.0 |
| 20260831123826 | 21 | 337 | 0.0 | 0.0 | 0.00 | 0.05 | 0.00 | 83 | 1036.0 |
| 20260831122826 | 21 | 71 | 0.0 | 4.8 | 0.00 | 0.05 | 0.00 | 83 | 1036.1 |
| 20260831121828 | 20 | 330 | 3.2 | 6.4 | 0.00 | 0.05 | 0.00 | 84 | 1036.0 |
| 20260831120826 | 20 | 315 | 1.6 | 3.2 | 0.00 | 0.05 | 0.00 | 85 | 1036.2 |
| 20260831115827 | 20 | 315 | 0.0 | 3.2 | 0.00 | 0.05 | 0.00 | 85 | 1036.1 |
| 20260831114826 | 20 | 337 | 3.2 | 4.8 | 0.00 | 0.05 | 0.00 | 86 | 1036.1 |
| 20260831113925 | 20 | 337 | 1.6 | 3.2 | 0.00 | 0.05 | 0.00 | 86 | 1036.1 |
| 20260831112927 | 20 | 337 | 1.6 | 3.2 | 0.00 | 0.05 | 0.00 | 87 | 1035.8 |
| 20260831111926 | 19 | 315 | 0.0 | 0.0 | 0.00 | 0.05 | 0.00 | 87 | 1035.8 |
| 20260831111025 | 19 | 337 | 0.0 | 0.0 | 0.00 | 0.05 | 0.00 | 87 | 1035.7 |
| 20260831110026 | 19 | 337 | 0.0 | 0.0 | 0.00 | 0.05 | 0.00 | 87 | 1035.6 |
| 20260831105026 | 19 | 337 | 0.0 | 0.0 | 0.00 | 0.05 | 0.00 | 87 | 1035.5 |
| 20260831104026 | 19 | 337 | 0.0 | 0.0 | 0.00 | 0.05 | 0.00 | 87 | 1035.4 |
| 20260831103027 | 19 | 180 | 0.0 | 0.0 | 0.00 | 0.05 | 0.00 | 88 | 1035.4 |
| 20260831102028 | 20 | 337 | 0.0 | 1.6 | 0.00 | 0.05 | 0.00 | 87 | 1035.3 |
| 20260831101026 | 20 | 337 | 0.0 | 0.0 | 0.00 | 0.05 | 0.00 | 87 | 1035.3 |
| 20260831095026 | 20 | 337 | 0.0 | 0.0 | 0.00 | 0.05 | 0.00 | 87 | 1035.0 |
| 20260831094028 | 20 | 67 | 0.0 | 1.6 | 0.00 | 0.05 | 0.00 | 86 | 1035.1 |
| 20260831093126 | 20 | 354 | 0.0 | 1.6 | 0.00 | 0.05 | 0.00 | 86 | 1034.9 |